Regional Weather Roundup
Issued by NWS New Orleans/Baton Rouge, LA

Home | Current Version | Previous Version | Text Only | Print | Product List | Glossary On
Versions: 1 2 3 4 5 6 7 8 9 10 11 12 13 14 15 16 17 18 19 20 21 22 23 24 25 26 27 28 29 30 31 32 33 34 35 36 37 38 39 40 41 42 43 44 45 46 47 48 49 50
000
ASUS44 KLIX 260213
RWRLIX
NEW ORLEANS REGIONAL WEATHER ROUNDUP
NATIONAL WEATHER SERVICE NEW ORLEANS LA
800 PM CST SAT FEB 25 2017

NOTE: "FAIR" INDICATES FEW OR NO CLOUDS BELOW 12,000 FEET WITH NO
      SIGNIFICANT WEATHER AND/OR OBSTRUCTIONS TO VISIBILITY.
      SKY/WX - SKY CONDITION AND SIGNIFICANT WEATHER.
      TMP - AIR TEMPERATURE.     DP    - DEWPOINT TEMPERATURE.
      RH  - RELATIVE HUMIDITY.   PRES  - PRESSURE.
      HI  - HEAT INDEX.          WCI   - WIND CHILL INDEX.

*  THESE STATIONS ARE NOT NWS OR FAA STATIONS AND ARE NOT UNDER
   NWS QUALITY CONTROL.

LAZ038-040-048-061>063-065>067-069-260300-
SOUTHEAST LOUISIANA

CITY           SKY/WX    TMP DP  RH WIND       PRES   REMARKS
N.O. AUDUBON   NOT AVBL
N.O. INTL ARPT CLEAR     63  33  32 N8        30.09R
N.O. LAKEFRONT CLEAR     64  36  35 N18       30.10R
N.O. DOWNTOWN*   N/A     64  33  31 N6        30.10R
RESERVE*         N/A     58  34  41 N5        30.10R
SLIDELL        CLEAR     50  41  71 N3        30.10R
BATON ROUGE    CLEAR     55  31  39 N3        30.10R
BOOTHVILLE     CLEAR     60  45  57 NW6       30.08R
BELLE CHASSE   CLEAR     58  37  45 N5        30.09R
BOGALUSA*        N/A     50  37  59 N5        30.12R
GALLIANO*      CLEAR     56  36  48 N5        30.09R
NEW ROADS*       N/A     51  33  50 NE5       30.11S
GONZALES*        N/A     58  28  32 N3        30.10R
HAMMOND*       CLEAR     52  30  43 CALM      30.11R
HOUMA*         CLEAR     58  34  40 NW3       30.09R
PORT FOURCHON* NOT AVBL

$$

MSZ070-080>082-260300-
SOUTHERN MISSISSIPPI

CITY           SKY/WX    TMP DP  RH WIND       PRES   REMARKS
MCCOMB         CLEAR     50  28  42 N8        30.11S
GULFPORT       CLEAR     59  30  33 N7        30.09R
BILOXI         CLEAR     58  33  38 N8        30.09R
PASCAGOULA     CLEAR     52  37  56 N5        30.10R
STENNIS ARPT*  CLEAR     50  30  46 N6        30.10R

$$

COASTAL OBSERVATIONS
LAKE AND NEARSHORE STATIONS

STATION/POSITION TIME  TEMP    WIND        PRES    WAVE
                       AIR SEA DIR/SP/G            HT/PER
                 (UTC) (F)     (DEG/KT/KT) (MB)    (FT/S)
PASCAGOULA       0148   59     350/  6/  8 1018.4
WAVELAND YACHT   0148   61 67   10/ 12/ 14 1018.7
GRAND ISLE       0148   66 70   10/ 10/ 13 1018.5
SOUTHWEST PASS   0142           20/  8/  9   N/A
NEW CANAL        0148   65 66   10/ 12/ 15 1018.1
SHELL BEACH      0148   65 68  350/ 16/ 17 1018.7

OFFSHORE STATIONS

STATION/POSITION TIME  TEMP    WIND        PRES    WAVE
                       AIR SEA DIR/SP/G            HT/PER
                 (UTC) (F)     (DEG/KT/KT) (MB)    (FT/S)

$$




USA.gov is the U.S. government's official web portal to all federal, state and local government web resources and services.